Location: Cedar Brake
(32.2526°N, 97.8459°W)
Time: 20:41:25
(UTC+00:00)

ALOS - Pass Details

Date: 22 April 2026
Orbit: 660 x 663 km, 98.1° (Epoch: 21 May)

Event Time Altitude Azimuth Distance (km) Brightness Sun altitude
Rises 10:24:30 0° 350° (N) 2,995 5.8 -18.5°
Reaches altitude 10° 10:27:33 10° 328° (NNW) 2,078 4.7 -17.9°
Enters shadow 10:29:47 15° 298° (WNW) 1,753 4.0 -17.5°
